BEIDOU-3 G3 (PRN 143)

Last updated on Thu Jul 03 2025 00:03:25 GMT+0000 (Coordinated Universal Time)

1 45807U 20040A 25183.58432251 -.00000347 00000+0 00000+0 0 9992 2 45807 1.5977 64.4335 0004874 345.5406 191.7312 1.00276264 18562
UTC large
Height (km)
Speed (km/s)
/
Latitude / Longitude
Inclination (degrees)
Orbital Period (minutes)
Azimuth
Elevation
Range (km)
Doppler Factor

Next 0 passes for location: London (51.5072 / 0.1276)

Sorry there are no passes over London.